This demonstration page uses our WeatherBlox Daily Observations layout. Learn more.

Left ArrowRight Arrow

Hourly Observations for June 11, 2021

Temp ( °F °C ) Dew Point ( °F °C ) Humidity (%) Winds ( mph kmh ) Pressure ( in mb ) Visibility ( mi km ) Precip ( " mm )
12:56 am 00:56 Mostly Cloudy 79 26.1 70 21.1 74 74 SSE 16 26 29.70 1006 10 16 0.00 0.00
1:56 am 01:56 Cloudy 79 26.1 70 21.1 74 74 SSE 17 28 29.68 1005 10 16 0.00 0.00
2:56 am 02:56 Mostly Clear 78 25.6 71 21.7 79 79 SSE 17 28 29.67 1005 10 16 0.00 0.00
3:56 am 03:56 Clear 77 25 71 21.7 82 82 SSE 16 26 29.67 1005 10 16 0.00 0.00
4:56 am 04:56 Clear 76 24.4 72 22.2 88 88 S 17 28 29.65 1004 10 16 0.00 0.00
5:56 am 05:56 Mostly Cloudy 76 24.4 72 22.2 88 88 SSW 10 17 29.69 1005 10 16 0.00 0.00
6:05 am 06:05 Mostly Cloudy 75 24 72 22 89 89 SW 9 15 29.67 1005 10 16 0.00 0.00
6:12 am 06:12 Cloudy 75 24 72 22 89 89 S 17 28 29.66 1004 10 16 0.00 0.00
6:43 am 06:43 Cloudy 77 25 73 23 89 89 SSW 9 15 29.66 1004 10 16 0.00 0.00
6:56 am 06:56 Cloudy 77 25 73 22.8 88 88 SSW 12 19 29.69 1006 10 16 0.00 0.00
7:12 am 07:12 Cloudy 77 25 73 23 89 89 SSW 9 15 29.66 1004 10 16 0.00 0.00
7:19 am 07:19 Cloudy 77 25 73 23 89 89 SW 9 15 29.67 1005 10 16 0.00 0.00
7:56 am 07:56 Cloudy 76 24.4 65 18.3 69 69 NNW 22 35 29.74 1007 7 11 0.00 0.00
8:04 am 08:04 Mostly Cloudy with Haze 73 23 57 14 57 57 N 24 39 29.72 1007 3 5 0.00 0.00
8:56 am 08:56 Sunny 74 23.3 58 14.4 57 57 N 23 37 29.80 1009 9 14 0.00 0.00
9:56 am 09:56 Sunny 74 23.3 58 14.4 57 57 N 28 44 29.84 1011 10 16 0.00 0.00
10:56 am 10:56 Sunny 76 24.4 57 13.9 52 52 N 28 44 29.85 1011 10 16 0.00 0.00
11:56 am 11:56 Sunny 77 25 55 12.8 47 47 N 21 33 29.87 1012 10 16 0.00 0.00
12:56 pm 12:56 Sunny 79 26.1 56 13.3 45 45 NNE 20 31 29.89 1012 10 16 0.00 0.00
1:56 pm 13:56 Sunny 80 26.7 57 13.9 45 45 N 20 31 29.89 1012 10 16 0.00 0.00
2:56 pm 14:56 Sunny 81 27.2 55 12.8 41 41 NNE 17 28 29.89 1012 10 16 0.00 0.00
3:56 pm 15:56 Sunny 81 27.2 55 12.8 41 41 NNE 17 28 29.90 1012 10 16 0.00 0.00
4:56 pm 16:56 Sunny 82 27.8 54 12.2 38 38 N 18 30 29.90 1013 10 16 0.00 0.00
5:56 pm 17:56 Sunny 81 27.2 53 11.7 38 38 N 16 26 29.90 1013 10 16 0.00 0.00
6:56 pm 18:56 Sunny 80 26.7 52 11.1 38 38 NNE 13 20 29.90 1012 10 16 0.00 0.00
7:56 pm 19:56 Sunny 78 25.6 52 11.1 40 40 NNE 12 19 29.91 1013 10 16 0.00 0.00
8:56 pm 20:56 Sunny 71 21.7 53 11.7 53 53 NNE 7 11 29.95 1014 10 16 0.00 0.00
9:56 pm 21:56 Clear 67 19.4 51 10.6 57 57 N 10 17 29.98 1015 10 16 0.00 0.00
10:56 pm 22:56 Clear 65 18.3 50 10 59 59 NNE 12 19 30.00 1016 10 16 0.00 0.00
11:56 pm 23:56 Clear 60 15.6 49 9.4 67 67 NNE 9 15 30.01 1016 10 16 0.00 0.00

Powered by AerisWeather